| time (UTC) | temp F | wind direction | speed knots | gust knots | rain 1hr in | rain 24hr in | rain mn in | humidity % | barometer mb |
| 20260506224023 | 49 | 0.0 | 0.0 | 0.01 | 0.04 | 0.01 | 94 | 1011.2 | |
| 20260506223023 | 49 | 331 | 0.0 | 0.9 | 0.00 | 0.03 | 0.00 | 94 | 1011.0 |
| 20260506222024 | 49 | 310 | 0.0 | 0.9 | 0.01 | 0.03 | 0.00 | 94 | 1010.9 |
| 20260506221045 | 49 | 350 | 0.0 | 0.9 | 0.01 | 0.03 | 0.00 | 94 | 1010.8 |
| 20260506220025 | 49 | 320 | 0.0 | 0.9 | 0.01 | 0.03 | 0.00 | 94 | 1010.8 |
| 20260506215025 | 50 | 315 | 0.9 | 1.7 | 0.01 | 0.03 | 0.03 | 94 | 1010.7 |
| 20260506214025 | 50 | 309 | 0.0 | 1.7 | 0.01 | 0.03 | 0.03 | 94 | 1010.7 |
| 20260506213026 | 50 | 317 | 0.0 | 0.9 | 0.01 | 0.03 | 0.03 | 93 | 1010.6 |
| 20260506212026 | 51 | 0.0 | 0.9 | 0.00 | 0.02 | 0.02 | 92 | 1010.3 | |
| 20260506211027 | 51 | 358 | 0.0 | 0.9 | 0.00 | 0.02 | 0.02 | 91 | 1010.3 |
| 20260506210028 | 51 | 0.0 | 0.0 | 0.00 | 0.02 | 0.02 | 90 | 1010.2 | |
| 20260506205028 | 52 | 322 | 0.0 | 0.9 | 0.00 | 0.03 | 0.02 | 90 | 1010.1 |
| 20260506204028 | 52 | 0.0 | 0.0 | 0.00 | 0.03 | 0.02 | 90 | 1010.1 | |
| 20260506203028 | 52 | 297 | 0.0 | 0.9 | 0.00 | 0.03 | 0.02 | 90 | 1010.1 |
| 20260506202049 | 51 | 0.0 | 0.0 | 0.00 | 0.04 | 0.02 | 90 | 1009.9 | |
| 20260506201029 | 52 | 0.0 | 0.0 | 0.00 | 0.04 | 0.02 | 89 | 1009.8 | |
| 20260506200110 | 52 | 0.0 | 0.9 | 0.00 | 0.04 | 0.02 | 89 | 1009.7 | |
| 20260506195030 | 52 | 312 | 0.0 | 0.9 | 0.00 | 0.04 | 0.02 | 89 | 1009.8 |
| 20260506194030 | 52 | 303 | 0.0 | 1.7 | 0.00 | 0.04 | 0.02 | 90 | 1009.7 |
| 20260506193051 | 52 | 0.0 | 0.0 | 0.00 | 0.05 | 0.02 | 90 | 1009.5 | |
| 20260506192032 | 52 | 0.0 | 0.0 | 0.00 | 0.06 | 0.02 | 90 | 1009.5 | |
| 20260506191032 | 52 | 16 | 0.0 | 0.9 | 0.00 | 0.07 | 0.02 | 89 | 1009.3 |
| 20260506190033 | 52 | 336 | 0.0 | 1.7 | 0.00 | 0.07 | 0.02 | 89 | 1009.1 |
| 20260506185033 | 53 | 332 | 0.0 | 0.9 | 0.00 | 0.07 | 0.02 | 89 | 1009.1 |
| 20260506184033 | 53 | 0.0 | 0.9 | 0.00 | 0.08 | 0.02 | 89 | 1008.8 | |
| 20260506183034 | 53 | 314 | 0.0 | 2.6 | 0.00 | 0.08 | 0.02 | 88 | 1008.6 |
| 20260506182034 | 53 | 312 | 0.9 | 2.6 | 0.00 | 0.08 | 0.02 | 88 | 1008.5 |
| 20260506181034 | 54 | 314 | 0.0 | 1.7 | 0.00 | 0.08 | 0.02 | 86 | 1008.3 |
| 20260506180035 | 54 | 307 | 0.0 | 1.7 | 0.00 | 0.08 | 0.02 | 86 | 1008.3 |
| 20260506175035 | 54 | 307 | 0.0 | 1.7 | 0.00 | 0.08 | 0.02 | 87 | 1008.2 |
| 20260506174035 | 55 | 330 | 0.9 | 4.3 | 0.00 | 0.08 | 0.02 | 88 | 1008.1 |
| 20260506173020 | 54 | 310 | 0.0 | 1.7 | 0.00 | 0.08 | 0.02 | 91 | 1008.0 |
| 20260506172036 | 54 | 357 | 0.0 | 0.9 | 0.00 | 0.08 | 0.02 | 91 | 1008.0 |
| 20260506171021 | 54 | 0.0 | 0.0 | 0.00 | 0.08 | 0.02 | 91 | 1008.0 | |
| 20260506170021 | 54 | 18 | 0.9 | 2.6 | 0.00 | 0.08 | 0.02 | 91 | 1007.8 |
| 20260506165118 | 55 | 350 | 0.0 | 1.7 | 0.02 | 0.08 | 0.02 | 89 | 1007.8 |
| 20260506164022 | 56 | 308 | 0.0 | 1.7 | 0.02 | 0.08 | 0.02 | 91 | 1007.9 |
| 20260506163038 | 57 | 303 | 0.0 | 0.9 | 0.02 | 0.08 | 0.02 | 90 | 1007.9 |
| 20260506162023 | 57 | 297 | 0.0 | 1.7 | 0.02 | 0.08 | 0.02 | 90 | 1007.7 |
| 20260506161040 | 57 | 294 | 0.0 | 0.9 | 0.02 | 0.08 | 0.02 | 90 | 1007.7 |
| 20260506160024 | 57 | 305 | 0.0 | 0.9 | 0.02 | 0.08 | 0.02 | 88 | 1007.7 |
| 20260506155040 | 58 | 299 | 0.0 | 0.9 | 0.00 | 0.06 | 0.00 | 86 | 1007.7 |
| 20260506154044 | 58 | 298 | 0.9 | 4.3 | 0.00 | 0.06 | 0.00 | 84 | 1007.8 |
| 20260506153041 | 59 | 289 | 1.7 | 5.2 | 0.00 | 0.06 | 0.00 | 79 | 1007.7 |
| 20260506152105 | 58 | 297 | 1.7 | 6.1 | 0.00 | 0.06 | 0.00 | 80 | 1007.7 |
| 20260506151042 | 59 | 289 | 1.7 | 5.2 | 0.00 | 0.06 | 0.00 | 80 | 1007.7 |
| 20260506150026 | 61 | 276 | 3.5 | 8.7 | 0.00 | 0.06 | 0.00 | 71 | 1007.4 |
| 20260506145043 | 62 | 307 | 1.7 | 6.1 | 0.00 | 0.06 | 0.00 | 67 | 1007.0 |
| 20260506144027 | 62 | 285 | 1.7 | 5.2 | 0.00 | 0.06 | 0.00 | 67 | 1007.0 |
| 20260506143043 | 62 | 300 | 2.6 | 4.3 | 0.00 | 0.06 | 0.00 | 68 | 1007.0 |
| 20260506142048 | 61 | 288 | 1.7 | 5.2 | 0.00 | 0.06 | 0.00 | 69 | 1006.9 |
| 20260506141044 | 61 | 261 | 1.7 | 6.1 | 0.00 | 0.07 | 0.00 | 69 | 1007.0 |
| 20260506140029 | 62 | 266 | 1.7 | 5.2 | 0.00 | 0.08 | 0.00 | 67 | 1006.8 |
| 20260506135045 | 63 | 276 | 1.7 | 6.1 | 0.00 | 0.08 | 0.00 | 65 | 1006.9 |
| 20260506134030 | 65 | 275 | 1.7 | 6.1 | 0.00 | 0.09 | 0.00 | 63 | 1006.8 |
| 20260506133046 | 65 | 250 | 2.6 | 5.2 | 0.00 | 0.09 | 0.00 | 63 | 1006.9 |
| 20260506132030 | 64 | 259 | 1.7 | 4.3 | 0.00 | 0.09 | 0.00 | 65 | 1007.0 |
| 20260506131107 | 65 | 268 | 1.7 | 5.2 | 0.00 | 0.10 | 0.00 | 63 | 1007.0 |
| 20260506130031 | 64 | 280 | 2.6 | 6.1 | 0.00 | 0.10 | 0.00 | 65 | 1007.1 |
| 20260506125032 | 65 | 281 | 2.6 | 7.0 | 0.00 | 0.10 | 0.00 | 65 | 1007.1 |
| 20260506124032 | 61 | 280 | 2.6 | 4.3 | 0.00 | 0.10 | 0.00 | 71 | 1007.2 |
| 20260506123052 | 60 | 283 | 1.7 | 7.0 | 0.00 | 0.10 | 0.00 | 73 | 1007.3 |
| 20260506122057 | 60 | 273 | 1.7 | 5.2 | 0.00 | 0.10 | 0.00 | 75 | 1007.3 |
| 20260506121017 | 58 | 291 | 2.6 | 7.0 | 0.00 | 0.10 | 0.00 | 76 | 1007.4 |
| 20260506120018 | 59 | 273 | 1.7 | 7.0 | 0.00 | 0.10 | 0.00 | 75 | 1007.4 |
| 20260506115018 | 59 | 249 | 2.6 | 7.8 | 0.00 | 0.10 | 0.00 | 74 | 1007.4 |
| 20260506114018 | 60 | 208 | 1.7 | 7.8 | 0.00 | 0.10 | 0.00 | 74 | 1007.3 |
| 20260506113019 | 58 | 268 | 0.9 | 6.1 | 0.00 | 0.10 | 0.00 | 77 | 1007.4 |
| 20260506112020 | 57 | 278 | 0.9 | 4.3 | 0.00 | 0.10 | 0.00 | 78 | 1007.4 |
| 20260506111019 | 57 | 267 | 1.7 | 6.1 | 0.00 | 0.10 | 0.00 | 79 | 1007.4 |
| 20260506110020 | 57 | 248 | 2.6 | 6.1 | 0.00 | 0.10 | 0.00 | 79 | 1007.4 |
| 20260506105020 | 58 | 211 | 2.6 | 7.8 | 0.00 | 0.10 | 0.00 | 78 | 1007.4 |
| 20260506104021 | 58 | 259 | 1.7 | 5.2 | 0.00 | 0.10 | 0.00 | 78 | 1007.5 |
| 20260506103021 | 57 | 264 | 1.7 | 5.2 | 0.00 | 0.10 | 0.00 | 78 | 1007.5 |
| 20260506102022 | 58 | 262 | 1.7 | 4.3 | 0.00 | 0.10 | 0.00 | 77 | 1007.3 |
| 20260506101042 | 59 | 277 | 0.9 | 2.6 | 0.00 | 0.10 | 0.00 | 77 | 1007.3 |
| 20260506100023 | 58 | 263 | 1.7 | 4.3 | 0.00 | 0.10 | 0.00 | 77 | 1007.2 |
| 20260506095023 | 58 | 265 | 2.6 | 6.1 | 0.00 | 0.10 | 0.00 | 78 | 1007.2 |
| 20260506094023 | 58 | 276 | 1.7 | 4.3 | 0.00 | 0.10 | 0.00 | 77 | 1007.3 |
| 20260506093024 | 58 | 267 | 2.6 | 6.1 | 0.00 | 0.10 | 0.00 | 78 | 1007.1 |
| 20260506092024 | 59 | 280 | 1.7 | 2.6 | 0.00 | 0.10 | 0.00 | 77 | 1007.1 |
| 20260506091045 | 58 | 285 | 1.7 | 5.2 | 0.00 | 0.10 | 0.00 | 77 | 1007.0 |
| 20260506090025 | 58 | 284 | 1.7 | 6.1 | 0.00 | 0.10 | 0.00 | 78 | 1007.0 |
| 20260506085025 | 58 | 284 | 0.9 | 2.6 | 0.00 | 0.10 | 0.00 | 79 | 1007.0 |
| 20260506084046 | 56 | 292 | 0.9 | 1.7 | 0.00 | 0.10 | 0.00 | 81 | 1007.1 |
| 20260506083046 | 56 | 267 | 0.9 | 2.6 | 0.00 | 0.10 | 0.00 | 82 | 1007.1 |
| 20260506082047 | 55 | 289 | 0.9 | 2.6 | 0.00 | 0.10 | 0.00 | 82 | 1007.1 |
| 20260506081027 | 55 | 275 | 0.9 | 4.3 | 0.00 | 0.10 | 0.00 | 83 | 1007.2 |
| 20260506073029 | 55 | 284 | 0.9 | 4.3 | 0.00 | 0.10 | 0.00 | 83 | 1006.9 |
| 20260506072029 | 55 | 291 | 0.9 | 4.3 | 0.00 | 0.10 | 0.00 | 84 | 1007.0 |
| 20260506071030 | 55 | 271 | 0.9 | 5.2 | 0.00 | 0.10 | 0.00 | 84 | 1007.0 |
| 20260506062032 | 54 | 273 | 0.9 | 2.6 | 0.00 | 0.10 | 0.00 | 90 | 1006.9 |
| 20260506061032 | 54 | 283 | 0.0 | 0.9 | 0.00 | 0.10 | 0.00 | 91 | 1007.0 |
| 20260506051034 | 53 | 281 | 0.9 | 1.7 | 0.00 | 0.10 | 0.00 | 92 | 1006.7 |
| 20260506045055 | 53 | 288 | 0.9 | 2.6 | 0.00 | 0.10 | 0.00 | 93 | 1006.7 |
| 20260506044036 | 53 | 277 | 0.9 | 4.3 | 0.00 | 0.10 | 0.00 | 93 | 1006.7 |
| 20260506043036 | 53 | 281 | 0.9 | 2.6 | 0.00 | 0.10 | 0.00 | 94 | 1006.8 |
| 20260506042036 | 53 | 282 | 0.9 | 2.6 | 0.00 | 0.10 | 0.00 | 94 | 1006.8 |
| 20260506041057 | 53 | 282 | 0.9 | 2.6 | 0.00 | 0.10 | 0.00 | 94 | 1006.9 |
| 20260506040038 | 53 | 267 | 0.9 | 2.6 | 0.00 | 0.10 | 0.00 | 95 | 1006.8 |
| 20260506035038 | 53 | 281 | 0.9 | 2.6 | 0.00 | 0.10 | 0.00 | 94 | 1007.0 |
| 20260506034038 | 53 | 276 | 0.0 | 1.7 | 0.00 | 0.10 | 0.00 | 95 | 1007.0 |
| 20260506033059 | 53 | 321 | 0.9 | 2.6 | 0.00 | 0.10 | 0.00 | 94 | 1007.1 |
| 20260506032039 | 53 | 281 | 0.9 | 2.6 | 0.00 | 0.10 | 0.00 | 95 | 1007.1 |
| 20260506031039 | 53 | 289 | 0.9 | 2.6 | 0.00 | 0.10 | 0.00 | 95 | 1007.1 |
| 20260506030040 | 53 | 285 | 0.9 | 4.3 | 0.00 | 0.10 | 0.00 | 95 | 1007.3 |
| 20260506025040 | 53 | 287 | 0.9 | 2.6 | 0.00 | 0.10 | 0.00 | 96 | 1007.2 |
| 20260506024041 | 53 | 282 | 0.9 | 2.6 | 0.00 | 0.10 | 0.00 | 96 | 1007.2 |
| 20260506023041 | 53 | 283 | 0.0 | 1.7 | 0.00 | 0.10 | 0.00 | 96 | 1007.3 |
| 20260506022042 | 53 | 270 | 0.9 | 1.7 | 0.00 | 0.10 | 0.00 | 96 | 1007.2 |
| 20260506021102 | 53 | 277 | 0.9 | 2.6 | 0.00 | 0.10 | 0.00 | 96 | 1007.1 |
| 20260506020142 | 53 | 287 | 0.9 | 1.7 | 0.00 | 0.10 | 0.00 | 96 | 1007.1 |
| 20260506015043 | 54 | 280 | 0.9 | 4.3 | 0.00 | 0.10 | 0.00 | 96 | 1007.2 |
| 20260506014043 | 54 | 267 | 0.0 | 4.3 | 0.00 | 0.10 | 0.00 | 96 | 1007.4 |
| 20260506013044 | 54 | 292 | 0.9 | 4.3 | 0.00 | 0.10 | 0.00 | 96 | 1007.5 |
| 20260506012044 | 54 | 279 | 0.9 | 2.6 | 0.00 | 0.10 | 0.00 | 96 | 1007.6 |
| 20260506011036 | 54 | 278 | 0.9 | 5.2 | 0.00 | 0.10 | 0.00 | 95 | 1007.6 |
| 20260506010017 | 54 | 273 | 1.7 | 4.3 | 0.00 | 0.10 | 0.00 | 96 | 1007.7 |
| 20260506005018 | 54 | 286 | 1.7 | 4.3 | 0.00 | 0.10 | 0.00 | 96 | 1007.8 |
| 20260506004018 | 54 | 286 | 0.9 | 5.2 | 0.00 | 0.10 | 0.00 | 97 | 1007.8 |
| 20260506003018 | 54 | 297 | 0.9 | 2.6 | 0.00 | 0.10 | 0.00 | 97 | 1007.8 |
| 20260506002018 | 54 | 276 | 0.9 | 2.6 | 0.00 | 0.10 | 0.00 | 98 | 1007.8 |
| 20260506001019 | 54 | 293 | 0.0 | 0.9 | 0.00 | 0.10 | 0.00 | 98 | 1007.9 |
| 20260506000059 | 53 | 280 | 0.0 | 0.9 | 0.00 | 0.10 | 0.00 | 98 | 1008.0 |
| 20260505235020 | 53 | 282 | 0.0 | 1.7 | 0.00 | 0.10 | 0.00 | 98 | 1008.0 |
| 20260505234048 | 53 | 282 | 0.0 | 0.9 | 0.00 | 0.10 | 0.00 | 98 | 1008.1 |
| 20260505233021 | 53 | 275 | 0.0 | 0.9 | 0.00 | 0.10 | 0.00 | 98 | 1008.2 |
| 20260505232049 | 53 | 286 | 0.0 | 0.9 | 0.00 | 0.10 | 0.00 | 98 | 1008.1 |
| 20260505231022 | 53 | 292 | 0.0 | 0.9 | 0.00 | 0.10 | 0.00 | 97 | 1008.3 |
| 20260505230050 | 53 | 0.0 | 0.9 | 0.00 | 0.10 | 0.00 | 97 | 1008.2 | |
| 20260505225043 | 54 | 0.0 | 0.0 | 0.00 | 0.10 | 0.00 | 97 | 1008.3 |